This is the latest recevied weather packets stored in our database for station/object OE6ACM-10. If no packets are shown the sender has not sent any weather packets the latest 10 day(s).
| Time | Temp. | Humidity | Pressure | Rain* | Wind** | Luminosity | Snow |
|---|---|---|---|---|---|---|---|
| 1777389409 | 28.89° C | 70% | 926.3 hPa | - | - | - | - |
| 1777389109 | 28.33° C | 73% | 926.2 hPa | - | - | - | - |
| 1777388809 | 28.33° C | 71% | 926.2 hPa | - | - | - | - |
| 1777388509 | 28.89° C | 70% | 926.1 hPa | - | - | - | - |
| 1777388209 | 28.89° C | 68% | 926.1 hPa | - | - | - | - |
| 1777387909 | 29.44° C | 69% | 926.2 hPa | - | - | - | - |
| 1777387609 | 29.44° C | 66% | 926.1 hPa | - | - | - | - |
| 1777387309 | 29.44° C | 65% | 926.1 hPa | - | - | - | - |
| 1777387009 | 30.56° C | 60% | 926.2 hPa | - | - | - | - |
| 1777386709 | 31.11° C | 60% | 926.1 hPa | - | - | - | - |
| 1777386409 | 31.67° C | 60% | 926.1 hPa | - | - | - | - |
| 1777386109 | 30.56° C | 60% | 926.2 hPa | - | - | - | - |
| 1777385809 | 30.56° C | 62% | 926.1 hPa | - | - | - | - |
| 1777385509 | 31.11° C | 56% | 926.3 hPa | - | - | - | - |
| 1777385209 | 31.11° C | 56% | 926.2 hPa | - | - | - | - |
| 1777384909 | 30.56° C | 58% | 926.2 hPa | - | - | - | - |
| 1777384609 | 30° C | 59% | 926.3 hPa | - | - | - | - |
| 1777384309 | 30.56° C | 58% | 926.2 hPa | - | - | - | - |
| 1777384009 | 32.22° C | 55% | 926.2 hPa | - | - | - | - |
| 1777383709 | 31.67° C | 52% | 926.3 hPa | - | - | - | - |
| 1777383409 | 32.22° C | 55% | 926.3 hPa | - | - | - | - |
| 1777383109 | 32.22° C | 50% | 926.3 hPa | - | - | - | - |
| 1777382809 | 32.22° C | 53% | 926.4 hPa | - | - | - | - |
| 1777382509 | 32.22° C | 51% | 926.4 hPa | - | - | - | - |
| 1777382209 | 32.78° C | 48% | 926.4 hPa | - | - | - | - |
* Rain since midnight (hover to see other rain measurements)
** Current wind speed in m/s (hover to see current wind gust speed)